Weather History for KIND - October, 2012

Change the Weather History Date:

Wednesday, October 3, 2012

  Actual Average Record
Temperature  
Mean Temperature 63 °F 60 °F  
Max Temperature 70 °F 70 °F 90 °F (1954)
Min Temperature 56 °F 49 °F 27 °F (1974)
Degree Days  
Heating Degree Days 2 7  
Month to date heating degree days 18 20  
Since 1 July heating degree days 106 95  
Cooling Degree Days 0 1  
Month to date cooling degree days 0 4  
Year to date cooling degree days 1530 1053  
Growing Degree Days 12 (Base 50)    
Moisture  
Dew Point 54 °F    
Average Humidity 73    
Maximum Humidity 93    
Minimum Humidity 53    
Precipitation  
Precipitation T in 0.11 in 2.61 in (1986)
Month to date precipitation 0.73 0.32  
Year to date precipitation 30.95 32.77  
Snow  
Snow 0.00 in 0.00 in 0.00 in ()
Month to date snowfall 0.0 0.0  
Since 1 July snowfall T 0.0  
Since 1 September snowfall T 0.0  
Snow Depth 0.00 in    
Sea Level Pressure  
Sea Level Pressure 29.98 in    
Wind  
Wind Speed 10 mph (South)    
Max Wind Speed 17 mph    
Max Gust Speed 21 mph    
Visibility 8 miles    
Events      
T = Trace of Precipitation, MM = Missing Value Source: NWS Daily Summary

Daily Weather History Graph

Daily Weather History Graph

Search for Another Location

Airport or City:

Trip Planner

Search our weather history database for the weather conditions in past years. The results will help you decide how hot, cold, wet, or windy it might be!

Date:

Astronomy

Oct. 03, 2012 Rise Set
Actual Time 7:43 AM EDT 7:23 PM EDT
Civil Twilight 7:16 AM EDT 7:50 PM EDT
Nautical Twilight 6:45 AM EDT 8:21 PM EDT
Astronomical Twilight 6:14 AM EDT 8:53 PM EDT
Moon 9:16 PM EDT (10/3) 11:05 AM EDT (10/3)
Length of Visible Light 12h 33m
Length of Day
11h 39m
Waning Gibbous, 89% of the Moon is Illuminated
Oct 3
Waning Gibbous
Oct 8
Last Quarter
Oct 15
New
Oct 21
First Quarter
Oct 29
Full

Hourly Weather History & Observations

Time (EDT) Temp. Dew Point Humidity Pressure Visibility Wind Dir Wind Speed Gust Speed Precip Events Conditions
12:07 AM 57.2 °F 55.4 °F 94% 29.89 in 10.0 mi South 6.9 mph - N/A   Overcast
12:46 AM 57.2 °F 55.4 °F 94% 29.89 in 7.0 mi SSE 6.9 mph - N/A   Overcast
12:54 AM 57.9 °F 55.9 °F 93% 29.89 in 7.0 mi South 8.1 mph - N/A   Overcast
1:01 AM 57.2 °F 55.4 °F 94% 29.89 in 8.0 mi South 6.9 mph - N/A   Overcast
1:29 AM 57.2 °F 55.4 °F 94% 29.89 in 8.0 mi SSE 6.9 mph - N/A   Overcast
1:37 AM 57.2 °F 55.4 °F 94% 29.89 in 7.0 mi SSE 6.9 mph - N/A   Overcast
1:54 AM 57.0 °F 55.9 °F 96% 29.89 in 7.0 mi SSE 5.8 mph - N/A   Overcast
2:09 AM 57.2 °F 55.4 °F 94% 29.90 in 6.0 mi SSE 5.8 mph - N/A   Overcast
2:21 AM 57.2 °F 55.4 °F 94% 29.90 in 6.0 mi SSE 5.8 mph - N/A   Overcast
2:54 AM 57.0 °F 55.9 °F 96% 29.91 in 6.0 mi South 6.9 mph - N/A   Overcast
3:54 AM 57.0 °F 55.0 °F 93% 29.91 in 9.0 mi South 10.4 mph - N/A   Overcast
4:01 AM 57.2 °F 55.4 °F 94% 29.92 in 8.0 mi South 11.5 mph - N/A   Overcast
4:54 AM 57.2 °F 55.4 °F 94% 29.93 in 6.0 mi South 8.1 mph - N/A   Overcast
5:01 AM 57.2 °F 55.4 °F 94% 29.93 in 7.0 mi South 9.2 mph - N/A   Overcast
5:16 AM 57.2 °F 53.6 °F 88% 29.94 in 10.0 mi South 10.4 mph - N/A   Overcast
5:30 AM 57.2 °F 53.6 °F 88% 29.94 in 10.0 mi South 10.4 mph - N/A   Overcast
5:54 AM 57.0 °F 54.0 °F 89% 29.95 in 10.0 mi South 8.1 mph - N/A   Overcast
6:17 AM 55.4 °F 53.6 °F 94% 29.96 in 9.0 mi South 10.4 mph - N/A   Overcast
6:40 AM 55.4 °F 53.6 °F 94% 29.96 in 7.0 mi South 9.2 mph - 0.00 in   Light Drizzle
6:54 AM 55.9 °F 54.0 °F 93% 29.96 in 5.0 mi South 9.2 mph - 0.00 in   Light Drizzle
7:25 AM 55.4 °F 53.6 °F 94% 29.98 in 7.0 mi South 10.4 mph - 0.00 in   Overcast
7:54 AM 55.9 °F 54.0 °F 93% 29.98 in 5.0 mi South 9.2 mph - 0.00 in   Overcast
8:54 AM 55.9 °F 54.0 °F 93% 30.00 in 7.0 mi South 10.4 mph - N/A   Overcast
9:27 AM 55.4 °F 55.4 °F 100% 30.01 in 2.5 mi South 9.2 mph - 0.00 in   Light Drizzle
9:54 AM 55.9 °F 55.0 °F 97% 30.02 in 2.0 mi South 10.4 mph - 0.00 in   Light Drizzle
10:33 AM 57.2 °F 55.4 °F 94% 30.03 in 5.0 mi SSW 12.7 mph - 0.00 in   Overcast
10:54 AM 57.2 °F 55.4 °F 94% 30.03 in 7.0 mi SSW 13.8 mph - N/A   Overcast
11:25 AM 60.8 °F 55.4 °F 82% 30.03 in 10.0 mi SSW 15.0 mph - N/A   Mostly Cloudy
11:54 AM 61.0 °F 55.0 °F 81% 30.04 in 10.0 mi SSW 11.5 mph - N/A   Mostly Cloudy
12:52 PM 62.6 °F 55.4 °F 77% 30.04 in 10.0 mi SSW 13.8 mph - N/A   Overcast
12:54 PM 63.0 °F 55.0 °F 75% 30.04 in 10.0 mi SW 16.1 mph - N/A   Mostly Cloudy
1:54 PM 66.0 °F 54.0 °F 65% 30.03 in 10.0 mi SW 11.5 mph - N/A   Mostly Cloudy
2:54 PM 66.9 °F 55.0 °F 66% 30.02 in 10.0 mi SW 12.7 mph - N/A   Mostly Cloudy
3:54 PM 69.8 °F 53.6 °F 56% 30.02 in 10.0 mi SSW 16.1 mph - N/A   Mostly Cloudy
4:54 PM 68.0 °F 53.1 °F 59% 30.02 in 10.0 mi SSW 10.4 mph - N/A   Mostly Cloudy
5:54 PM 69.1 °F 52.0 °F 54% 30.02 in 10.0 mi SSW 10.4 mph - N/A   Scattered Clouds
6:54 PM 64.9 °F 53.1 °F 65% 30.04 in 10.0 mi South 6.9 mph - N/A   Scattered Clouds
7:54 PM 64.0 °F 52.0 °F 65% 30.04 in 10.0 mi SSE 8.1 mph - N/A   Scattered Clouds
8:54 PM 63.0 °F 52.0 °F 67% 30.05 in 10.0 mi SSE 9.2 mph - N/A   Scattered Clouds
9:54 PM 62.1 °F 52.0 °F 70% 30.08 in 10.0 mi South 11.5 mph - N/A   Scattered Clouds
10:54 PM 61.0 °F 51.1 °F 70% 30.08 in 10.0 mi South 10.4 mph - N/A   Partly Cloudy
11:54 PM 61.0 °F 51.1 °F 70% 30.09 in 10.0 mi South 10.4 mph - N/A   Partly Cloudy